Time,TemperatureF,DewpointF,PressureIn,WindDirection,WindDirectionDegrees,WindSpeedMPH,WindSpeedGustMPH,Humidity,HourlyPrecipIn,Conditions,Clouds,dailyrainin,SoftwareType,DateUTC
2013-01-01 00:00:00,27.0,21.9,29.70,WSW,250,0.0,0.0,81,0.00,,,0.00,Wunderground v.1.15,2013-01-01 05:00:00,
2013-01-01 00:05:00,26.9,21.8,29.70,WSW,250,0.0,0.0,81,0.00,,,0.00,Wunderground v.1.15,2013-01-01 05:05:00,
2013-01-01 00:10:00,26.8,21.8,29.69,WSW,250,0.0,0.0,81,0.00,,,0.00,Wunderground v.1.15,2013-01-01 05:10:00,
2013-01-01 00:15:00,26.9,22.1,29.69,WSW,257,0.0,0.0,82,0.00,,,0.00,Wunderground v.1.15,2013-01-01 05:15:00,
2013-01-01 00:25:00,27.0,22.2,29.69,WSW,257,0.0,0.0,82,0.00,,,0.00,Wunderground v.1.15,2013-01-01 05:25:00,
2013-01-01 00:30:00,27.1,22.3,29.68,WSW,257,0.0,0.0,82,0.00,,,0.00,Wunderground v.1.15,2013-01-01 05:30:00,
2013-01-01 00:35:00,27.4,22.3,29.68,WSW,256,0.0,0.0,81,0.00,,,0.00,Wunderground v.1.15,2013-01-01 05:35:00,
2013-01-01 00:40:00,27.6,22.5,29.68,WSW,257,0.0,0.0,81,0.00,,,0.00,Wunderground v.1.15,2013-01-01 05:40:00,
2013-01-01 00:45:00,27.8,22.4,29.68,WSW,257,0.0,0.0,80,0.00,,,0.00,Wunderground v.1.15,2013-01-01 05:45:00,
2013-01-01 00:55:00,27.9,22.5,29.68,WSW,256,0.0,0.0,80,0.00,,,0.00,Wunderground v.1.15,2013-01-01 05:55:00,
2013-01-01 01:05:00,28.0,22.6,29.68,WSW,257,0.0,0.0,80,0.00,,,0.00,Wunderground v.1.15,2013-01-01 06:05:00,
2013-01-01 01:10:00,28.0,22.9,29.68,WSW,257,0.0,0.0,81,0.00,,,0.00,Wunderground v.1.15,2013-01-01 06:10:00,
2013-01-01 01:15:00,28.1,22.7,29.68,WSW,256,0.0,0.0,80,0.00,,,0.00,Wunderground v.1.15,2013-01-01 06:15:00,
2013-01-01 01:25:00,28.2,23.1,29.68,WSW,256,0.0,0.0,81,0.00,,,0.00,Wunderground v.1.15,2013-01-01 06:25:00,
2013-01-01 01:30:00,28.3,23.2,29.67,WSW,256,1.0,1.0,81,0.00,,,0.00,Wunderground v.1.15,2013-01-01 06:30:00,
2013-01-01 01:35:00,28.4,23.3,29.67,WSW,256,0.0,1.0,81,0.00,,,0.00,Wunderground v.1.15,2013-01-01 06:35:00,
2013-01-01 01:45:00,28.3,23.5,29.67,WSW,256,0.0,0.0,82,0.00,,,0.00,Wunderground v.1.15,2013-01-01 06:45:00,
2013-01-01 01:55:00,28.3,23.8,29.68,WSW,256,0.0,0.0,83,0.00,,,0.00,Wunderground v.1.15,2013-01-01 06:55:00,
2013-01-01 02:00:00,28.2,23.7,29.68,WSW,256,0.0,0.0,83,0.00,,,0.00,Wunderground v.1.15,2013-01-01 07:00:00,
2013-01-01 02:05:00,28.1,23.9,29.67,WSW,256,0.0,0.0,84,0.00,,,0.00,Wunderground v.1.15,2013-01-01 07:05:00,
2013-01-01 02:15:00,28.1,23.9,29.68,WSW,256,0.0,3.0,84,0.00,,,0.00,Wunderground v.1.15,2013-01-01 07:15:00,
2013-01-01 02:25:00,28.1,23.9,29.67,WSW,256,0.0,1.0,84,0.00,,,0.00,Wunderground v.1.15,2013-01-01 07:25:00,
2013-01-01 02:35:00,27.8,23.6,29.67,WSW,256,0.0,0.0,84,0.00,,,0.00,Wunderground v.1.15,2013-01-01 07:35:00,
2013-01-01 02:45:00,27.4,23.5,29.67,WSW,256,0.0,0.0,85,0.00,,,0.00,Wunderground v.1.15,2013-01-01 07:45:00,
2013-01-01 02:50:00,27.3,23.7,29.67,WSW,256,0.0,0.0,86,0.00,,,0.00,Wunderground v.1.15,2013-01-01 07:50:00,
2013-01-01 02:55:00,27.1,23.5,29.67,WSW,256,0.0,0.0,86,0.00,,,0.00,Wunderground v.1.15,2013-01-01 07:55:00,
2013-01-01 03:05:00,27.0,23.4,29.66,WSW,256,0.0,1.0,86,0.00,,,0.00,Wunderground v.1.15,2013-01-01 08:05:00,
2013-01-01 03:10:00,27.1,23.7,29.66,WSW,256,1.0,1.0,87,0.00,,,0.00,Wunderground v.1.15,2013-01-01 08:10:00,
2013-01-01 03:15:00,27.3,23.9,29.66,WSW,256,1.0,2.0,87,0.00,,,0.00,Wunderground v.1.15,2013-01-01 08:15:00,
2013-01-01 03:25:00,27.6,24.2,29.65,WSW,256,1.0,1.0,87,0.00,,,0.00,Wunderground v.1.15,2013-01-01 08:25:00,
2013-01-01 03:35:00,27.9,24.3,29.65,WSW,256,0.0,0.0,86,0.00,,,0.00,Wunderground v.1.15,2013-01-01 08:35:00,
2013-01-01 03:40:00,28.2,24.6,29.65,WSW,256,1.0,1.0,86,0.00,,,0.00,Wunderground v.1.15,2013-01-01 08:40:00,
2013-01-01 03:45:00,28.3,24.6,29.65,WSW,256,1.0,1.0,86,0.00,,,0.00,Wunderground v.1.15,2013-01-01 08:45:00,
2013-01-01 03:55:00,28.3,24.6,29.66,WSW,256,0.0,1.0,86,0.00,,,0.00,Wunderground v.1.15,2013-01-01 08:55:00,
2013-01-01 04:05:00,28.6,24.9,29.65,WSW,255,0.0,0.0,86,0.00,,,0.00,Wunderground v.1.15,2013-01-01 09:05:00,
2013-01-01 04:10:00,28.6,24.9,29.65,WSW,254,0.0,0.0,86,0.00,,,0.00,Wunderground v.1.15,2013-01-01 09:10:00,
2013-01-01 04:15:00,28.7,24.8,29.65,WSW,254,1.0,1.0,85,0.00,,,0.00,Wunderground v.1.15,2013-01-01 09:15:00,
2013-01-01 04:25:00,28.5,24.6,29.65,WSW,253,1.0,3.0,85,0.00,,,0.00,Wunderground v.1.15,2013-01-01 09:25:00,
2013-01-01 04:30:00,28.7,24.8,29.65,WSW,248,3.0,3.0,85,0.00,,,0.00,Wunderground v.1.15,2013-01-01 09:30:00,
2013-01-01 04:40:00,28.9,24.4,29.65,WSW,257,4.0,4.0,83,0.00,,,0.00,Wunderground v.1.15,2013-01-01 09:40:00,
2013-01-01 04:50:00,29.0,24.2,29.65,SW,218,3.0,3.0,82,0.00,,,0.00,Wunderground v.1.15,2013-01-01 09:50:00,
2013-01-01 04:55:00,29.1,24.0,29.65,WSW,254,3.0,5.0,81,0.00,,,0.00,Wunderground v.1.15,2013-01-01 09:55:00,
2013-01-01 05:00:00,29.0,23.6,29.65,West,260,3.0,3.0,80,0.00,,,0.00,Wunderground v.1.15,2013-01-01 10:00:00,
2013-01-01 05:05:00,29.0,23.3,29.65,WSW,257,4.0,4.0,79,0.00,,,0.00,Wunderground v.1.15,2013-01-01 10:05:00,
2013-01-01 05:15:00,29.2,22.6,29.66,WSW,254,4.0,4.0,76,0.00,,,0.00,Wunderground v.1.15,2013-01-01 10:15:00,
2013-01-01 05:25:00,29.2,22.3,29.66,West,264,3.0,4.0,75,0.00,,,0.00,Wunderground v.1.15,2013-01-01 10:25:00,
2013-01-01 05:30:00,29.1,21.8,29.66,WNW,284,3.0,4.0,74,0.00,,,0.00,Wunderground v.1.15,2013-01-01 10:30:00,
2013-01-01 05:35:00,29.1,21.8,29.67,WSW,245,3.0,4.0,74,0.00,,,0.00,Wunderground v.1.15,2013-01-01 10:35:00,
2013-01-01 05:45:00,29.3,21.4,29.67,WSW,248,4.0,9.0,72,0.00,,,0.00,Wunderground v.1.15,2013-01-01 10:45:00,
2013-01-01 05:55:00,28.9,21.0,29.68,West,259,3.0,4.0,72,0.00,,,0.00,Wunderground v.1.15,2013-01-01 10:55:00,
2013-01-01 06:05:00,28.9,21.0,29.68,WSW,238,4.0,11.0,72,0.00,,,0.00,Wunderground v.1.15,2013-01-01 11:05:00,
2013-01-01 06:15:00,28.9,20.7,29.69,WSW,258,5.0,5.0,71,0.00,,,0.00,Wunderground v.1.15,2013-01-01 11:15:00,
2013-01-01 06:25:00,28.6,20.4,29.68,WSW,253,5.0,8.0,71,0.00,,,0.00,Wunderground v.1.15,2013-01-01 11:25:00,
2013-01-01 06:35:00,28.4,19.9,29.68,SW,234,6.0,11.0,70,0.00,,,0.00,Wunderground v.1.15,2013-01-01 11:35:00,
2013-01-01 06:40:00,28.4,19.9,29.68,NNW,329,6.0,10.0,70,0.00,,,0.00,Wunderground v.1.15,2013-01-01 11:40:00,
2013-01-01 06:45:00,28.3,19.8,29.69,NW,316,5.0,10.0,70,0.00,,,0.00,Wunderground v.1.15,2013-01-01 11:45:00,
2013-01-01 06:55:00,28.2,19.7,29.69,NW,317,5.0,10.0,70,0.00,,,0.00,Wunderground v.1.15,2013-01-01 11:55:00,
2013-01-01 07:00:00,28.1,19.6,29.70,West,263,3.0,3.0,70,0.00,,,0.00,Wunderground v.1.15,2013-01-01 12:00:00,
2013-01-01 07:05:00,28.1,19.6,29.70,SW,234,2.0,3.0,70,0.00,,,0.00,Wunderground v.1.15,2013-01-01 12:05:00,
2013-01-01 07:15:00,27.9,19.4,29.71,WNW,287,2.0,4.0,70,0.00,,,0.00,Wunderground v.1.15,2013-01-01 12:15:00,
2013-01-01 07:25:00,28.0,19.5,29.72,WSW,245,3.0,6.0,70,0.00,,,0.00,Wunderground v.1.15,2013-01-01 12:25:00,
2013-01-01 07:30:00,28.0,19.5,29.72,SW,233,2.0,3.0,70,0.00,,,0.00,Wunderground v.1.15,2013-01-01 12:30:00,
2013-01-01 07:35:00,28.1,19.9,29.72,NW,313,1.0,3.0,71,0.00,,,0.00,Wunderground v.1.15,2013-01-01 12:35:00,
2013-01-01 07:45:00,27.9,19.4,29.72,WSW,254,2.0,2.0,70,0.00,,,0.00,Wunderground v.1.15,2013-01-01 12:45:00,
2013-01-01 07:55:00,27.5,19.7,29.72,NE,34,1.0,2.0,72,0.00,,,0.00,Wunderground v.1.15,2013-01-01 12:55:00,
2013-01-01 08:00:00,27.2,19.7,29.73,NW,321,1.0,1.0,73,0.00,,,0.00,Wunderground v.1.15,2013-01-01 13:00:00,
2013-01-01 08:05:00,26.9,19.4,29.73,WSW,241,1.0,1.0,73,0.00,,,0.00,Wunderground v.1.15,2013-01-01 13:05:00,
2013-01-01 08:15:00,26.4,18.9,29.74,West,262,1.0,1.0,73,0.00,,,0.00,Wunderground v.1.15,2013-01-01 13:15:00,
2013-01-01 08:25:00,25.7,18.6,29.75,WNW,292,1.0,6.0,74,0.00,,,0.00,Wunderground v.1.15,2013-01-01 13:25:00,
2013-01-01 08:35:00,25.3,18.2,29.75,SE,142,1.0,1.0,74,0.00,,,0.00,Wunderground v.1.15,2013-01-01 13:35:00,
2013-01-01 08:40:00,25.3,17.9,29.75,West,273,1.0,1.0,73,0.00,,,0.00,Wunderground v.1.15,2013-01-01 13:40:00,
2013-01-01 08:45:00,25.2,17.8,29.75,West,263,1.0,1.0,73,0.00,,,0.00,Wunderground v.1.15,2013-01-01 13:45:00,
2013-01-01 08:55:00,24.8,16.4,29.75,West,281,3.0,3.0,70,0.00,,,0.00,Wunderground v.1.15,2013-01-01 13:55:00,
2013-01-01 09:05:00,24.5,15.4,29.74,West,273,4.0,4.0,68,0.00,,,0.00,Wunderground v.1.15,2013-01-01 14:05:00,
2013-01-01 09:10:00,24.1,14.7,29.74,South,181,6.0,6.0,67,0.00,,,0.00,Wunderground v.1.15,2013-01-01 14:10:00,
2013-01-01 09:20:00,23.6,14.2,29.75,WNW,290,4.0,4.0,67,0.00,,,0.00,Wunderground v.1.15,2013-01-01 14:20:00,
2013-01-01 09:25:00,23.4,13.7,29.75,SSW,213,4.0,9.0,66,0.00,,,0.00,Wunderground v.1.15,2013-01-01 14:25:00,
2013-01-01 09:30:00,23.1,13.4,29.75,NE,39,4.0,4.0,66,0.00,,,0.00,Wunderground v.1.15,2013-01-01 14:30:00,
2013-01-01 09:35:00,22.9,13.2,29.75,SW,222,4.0,27.0,66,0.00,,,0.00,Wunderground v.1.15,2013-01-01 14:35:00,
2013-01-01 09:45:00,22.5,12.8,29.76,SW,229,3.0,3.0,66,0.00,,,0.00,Wunderground v.1.15,2013-01-01 14:45:00,
2013-01-01 09:55:00,22.3,12.3,29.76,West,261,3.0,12.0,65,0.00,,,0.00,Wunderground v.1.15,2013-01-01 14:55:00,
2013-01-01 10:00:00,22.2,12.2,29.76,WSW,238,2.0,4.0,65,0.00,,,0.00,Wunderground v.1.15,2013-01-01 15:00:00,
2013-01-01 10:05:00,22.4,12.1,29.77,SSW,211,2.0,7.0,64,0.00,,,0.00,Wunderground v.1.15,2013-01-01 15:05:00,
2013-01-01 10:15:00,23.4,12.6,29.77,West,271,4.0,6.0,63,0.00,,,0.00,Wunderground v.1.15,2013-01-01 15:15:00,
2013-01-01 10:25:00,24.5,13.3,29.78,West,261,4.0,5.0,62,0.00,,,0.00,Wunderground v.1.15,2013-01-01 15:25:00,
2013-01-01 10:30:00,25.0,13.1,29.78,WSW,252,2.0,2.0,60,0.00,,,0.00,Wunderground v.1.15,2013-01-01 15:30:00,
2013-01-01 10:40:00,25.5,13.1,29.77,SW,230,2.0,2.0,59,0.00,,,0.00,Wunderground v.1.15,2013-01-01 15:40:00,
2013-01-01 10:45:00,25.2,12.9,29.77,West,278,2.0,4.0,59,0.00,,,0.00,Wunderground v.1.15,2013-01-01 15:45:00,
2013-01-01 10:50:00,25.1,13.2,29.76,West,264,4.0,7.0,60,0.00,,,0.00,Wunderground v.1.15,2013-01-01 15:50:00,
2013-01-01 10:55:00,24.8,12.1,29.76,SW,215,5.0,7.0,58,0.00,,,0.00,Wunderground v.1.15,2013-01-01 15:55:00,
2013-01-01 11:05:00,24.2,11.9,29.76,WSW,252,6.0,7.0,59,0.00,,,0.00,Wunderground v.1.15,2013-01-01 16:05:00,
2013-01-01 11:15:00,24.5,12.2,29.76,West,263,6.0,10.0,59,0.00,,,0.00,Wunderground v.1.15,2013-01-01 16:15:00,
2013-01-01 11:20:00,24.5,12.2,29.77,WNW,287,5.0,5.0,59,0.00,,,0.00,Wunderground v.1.15,2013-01-01 16:20:00,
2013-01-01 11:25:00,24.5,12.2,29.77,West,276,4.0,5.0,59,0.00,,,0.00,Wunderground v.1.15,2013-01-01 16:25:00,
2013-01-01 11:35:00,24.3,12.0,29.77,South,190,5.0,8.0,59,0.00,,,0.00,Wunderground v.1.15,2013-01-01 16:35:00,
2013-01-01 11:45:00,23.5,11.6,29.76,West,272,4.0,6.0,60,0.00,,,0.00,Wunderground v.1.15,2013-01-01 16:45:00,
2013-01-01 11:50:00,22.9,11.8,29.76,WSW,254,5.0,5.0,62,0.00,,,0.00,Wunderground v.1.15,2013-01-01 16:50:00,
2013-01-01 11:55:00,22.7,11.6,29.76,WSW,257,5.0,5.0,62,0.00,,,0.00,Wunderground v.1.15,2013-01-01 16:55:00,
2013-01-01 12:05:00,22.9,11.8,29.75,WSW,254,5.0,5.0,62,0.00,,,0.00,Wunderground v.1.15,2013-01-01 17:05:00,
2013-01-01 12:10:00,22.7,11.6,29.75,SW,223,5.0,5.0,62,0.00,,,0.00,Wunderground v.1.15,2013-01-01 17:10:00,
2013-01-01 12:15:00,21.9,11.2,29.75,WSW,238,6.0,6.0,63,0.00,,,0.00,Wunderground v.1.15,2013-01-01 17:15:00,
2013-01-01 12:25:00,21.6,11.6,29.75,SW,215,4.0,6.0,65,0.00,,,0.00,Wunderground v.1.15,2013-01-01 17:25:00,
2013-01-01 12:30:00,22.0,11.7,29.76,West,263,2.0,2.0,64,0.00,,,0.00,Wunderground v.1.15,2013-01-01 17:30:00,
2013-01-01 12:35:00,22.8,12.1,29.76,WNW,301,3.0,3.0,63,0.00,,,0.00,Wunderground v.1.15,2013-01-01 17:35:00,
2013-01-01 12:45:00,24.1,12.9,29.75,North,351,2.0,4.0,62,0.00,,,0.00,Wunderground v.1.15,2013-01-01 17:45:00,
2013-01-01 12:55:00,24.9,13.0,29.75,SW,234,2.0,4.0,60,0.00,,,0.00,Wunderground v.1.15,2013-01-01 17:55:00,
2013-01-01 13:00:00,24.5,13.0,29.75,WNW,286,2.0,2.0,61,0.00,,,0.00,Wunderground v.1.15,2013-01-01 18:00:00,
2013-01-01 13:10:00,23.6,12.1,29.76,West,267,2.0,2.0,61,0.00,,,0.00,Wunderground v.1.15,2013-01-01 18:10:00,
2013-01-01 13:15:00,23.0,11.9,29.76,SW,234,2.0,4.0,62,0.00,,,0.00,Wunderground v.1.15,2013-01-01 18:15:00,
2013-01-01 13:20:00,22.3,11.6,29.76,NNW,331,2.0,2.0,63,0.00,,,0.00,Wunderground v.1.15,2013-01-01 18:20:00,
2013-01-01 13:25:00,21.9,11.6,29.75,NE,36,2.0,2.0,64,0.00,,,0.00,Wunderground v.1.15,2013-01-01 18:25:00,
2013-01-01 13:35:00,22.7,12.0,29.74,West,267,3.0,3.0,63,0.00,,,0.00,Wunderground v.1.15,2013-01-01 18:35:00,
2013-01-01 13:40:00,23.5,12.4,29.73,SW,223,2.0,3.0,62,0.00,,,0.00,Wunderground v.1.15,2013-01-01 18:40:00,
2013-01-01 13:45:00,23.6,12.1,29.74,NW,325,2.0,5.0,61,0.00,,,0.00,Wunderground v.1.15,2013-01-01 18:45:00,
2013-01-01 13:55:00,23.8,12.3,29.74,NE,49,3.0,3.0,61,0.00,,,0.00,Wunderground v.1.15,2013-01-01 18:55:00,
2013-01-01 14:00:00,23.9,12.0,29.74,SW,229,2.0,2.0,60,0.00,,,0.00,Wunderground v.1.15,2013-01-01 19:00:00,
2013-01-01 14:05:00,23.4,11.9,29.74,SSW,202,2.0,2.0,61,0.00,,,0.00,Wunderground v.1.15,2013-01-01 19:05:00,
2013-01-01 14:15:00,23.9,12.4,29.74,WNW,296,1.0,2.0,61,0.00,,,0.00,Wunderground v.1.15,2013-01-01 19:15:00,
2013-01-01 14:25:00,23.6,11.7,29.75,WSW,237,2.0,5.0,60,0.00,,,0.00,Wunderground v.1.15,2013-01-01 19:25:00,
2013-01-01 14:35:00,23.6,11.4,29.75,North,360,2.0,9.0,59,0.00,,,0.00,Wunderground v.1.15,2013-01-01 19:35:00,
2013-01-01 14:45:00,23.9,11.3,29.75,WNW,290,2.0,5.0,58,0.00,,,0.00,Wunderground v.1.15,2013-01-01 19:45:00,
2013-01-01 14:50:00,23.8,11.2,29.75,WSW,248,2.0,13.0,58,0.00,,,0.00,Wunderground v.1.15,2013-01-01 19:50:00,
2013-01-01 15:00:00,23.0,10.4,29.74,WSW,254,2.0,2.0,58,0.00,,,0.00,Wunderground v.1.15,2013-01-01 20:00:00,
2013-01-01 15:05:00,22.7,10.1,29.75,West,263,2.0,2.0,58,0.00,,,0.00,Wunderground v.1.15,2013-01-01 20:05:00,
2013-01-01 15:10:00,22.1,9.6,29.75,WSW,244,2.0,3.0,58,0.00,,,0.00,Wunderground v.1.15,2013-01-01 20:10:00,
2013-01-01 15:20:00,21.6,9.5,29.75,SSW,199,2.0,2.0,59,0.00,,,0.00,Wunderground v.1.15,2013-01-01 20:20:00,
2013-01-01 15:25:00,21.2,9.5,29.76,WSW,258,3.0,12.0,60,0.00,,,0.00,Wunderground v.1.15,2013-01-01 20:25:00,
2013-01-01 15:30:00,20.6,8.9,29.76,NNW,336,4.0,5.0,60,0.00,,,0.00,Wunderground v.1.15,2013-01-01 20:30:00,
2013-01-01 15:35:00,20.3,8.6,29.76,West,259,4.0,5.0,60,0.00,,,0.00,Wunderground v.1.15,2013-01-01 20:35:00,
2013-01-01 15:40:00,20.0,8.3,29.76,West,259,5.0,5.0,60,0.00,,,0.00,Wunderground v.1.15,2013-01-01 20:40:00,
2013-01-01 15:45:00,19.8,7.8,29.76,NW,315,4.0,5.0,59,0.00,,,0.00,Wunderground v.1.15,2013-01-01 20:45:00,
2013-01-01 15:55:00,19.7,7.7,29.77,WSW,254,2.0,3.0,59,0.00,,,0.00,Wunderground v.1.15,2013-01-01 20:55:00,
2013-01-01 16:05:00,19.3,7.3,29.77,West,281,3.0,3.0,59,0.00,,,0.00,Wunderground v.1.15,2013-01-01 21:05:00,
2013-01-01 16:10:00,18.9,7.3,29.78,West,274,2.0,3.0,60,0.00,,,0.00,Wunderground v.1.15,2013-01-01 21:10:00,
2013-01-01 16:15:00,18.6,7.0,29.78,WSW,246,1.0,3.0,60,0.00,,,0.00,Wunderground v.1.15,2013-01-01 21:15:00,
2013-01-01 16:25:00,18.0,6.8,29.79,WSW,245,1.0,4.0,61,0.00,,,0.00,Wunderground v.1.15,2013-01-01 21:25:00,
2013-01-01 16:30:00,17.8,6.2,29.79,WNW,287,1.0,1.0,60,0.00,,,0.00,Wunderground v.1.15,2013-01-01 21:30:00,
2013-01-01 16:35:00,17.7,6.2,29.79,SW,222,2.0,5.0,60,0.00,,,0.00,Wunderground v.1.15,2013-01-01 21:35:00,
2013-01-01 16:45:00,17.4,5.9,29.79,NW,323,3.0,3.0,60,0.00,,,0.00,Wunderground v.1.15,2013-01-01 21:45:00,
2013-01-01 16:55:00,17.1,5.2,29.79,West,263,3.0,3.0,59,0.00,,,0.00,Wunderground v.1.15,2013-01-01 21:55:00,
2013-01-01 17:00:00,16.9,5.0,29.79,WNW,286,3.0,3.0,59,0.00,,,0.00,Wunderground v.1.15,2013-01-01 22:00:00,
2013-01-01 17:05:00,16.7,4.8,29.79,West,264,2.0,3.0,59,0.00,,,0.00,Wunderground v.1.15,2013-01-01 22:05:00,
2013-01-01 17:15:00,16.2,4.7,29.81,West,270,1.0,2.0,60,0.00,,,0.00,Wunderground v.1.15,2013-01-01 22:15:00,